Location: Auchebie
(45.4000°N, 2.2000°E)
Time: 06:48:36
(UTC+00:00)

Daily predictions for brighter satellites

Satellite Brightness Start Highest point End
(mag) Time Altitude Azimuth Time Altitude Azimuth Time Altitude Azimuth
Cosmos 1452 Rocket 3.5 20:13:19 10° SSW 20:18:36 83° ESE 20:23:54 10° NNE
Resurs 1-3 4.1 20:14:46 10° S 20:19:07 64° W 20:23:30 10° NNW
Cosmos 2219 Rocket 3.4 20:17:52 10° SSE 20:22:12 23° E 20:26:33 10° NE
Cosmos 2333 Rocket 3.2 20:18:41 10° SSE 20:23:26 28° ESE 20:28:12 10° NE
FALCON 9 DEB 3.8 20:22:13 10° SSW 20:24:56 28° SE 20:27:41 10° ENE
Cosmos 1850 Rocket 4.1 20:22:18 10° NNW 20:27:39 86° ENE 20:32:53 10° SSE
Cosmos 1758 3.5 20:23:41 10° NNW 20:27:39 73° W 20:31:35 10° S
Cosmos 1025 Rocket 3.9 20:24:46 10° SSE 20:28:37 31° E 20:32:28 10° NNE
Lacrosse 5 rocket 1.0 20:24:57 10° SW 20:28:38 64° SE 20:32:12 10° NE
ERS-1 Rocket 4.2 20:24:45 10° ESE 20:28:56 27° ENE 20:33:09 10° N
Cosmos 1844 4.0 20:24:57 10° NNW 20:30:27 57° ENE 20:35:57 10° SE
Spot 2 Rocket 4.1 20:28:52 10° SE 20:33:36 42° ENE 20:38:23 10° N
Cosmos 1727 Rocket 4.1 20:28:02 10° S 20:34:20 86° E 20:40:39 10° N
Cosmos 1331 Rocket 4.2 20:30:39 10° S 20:35:43 54° ESE 20:40:53 10° NNE
DNEPR-1 R/B 4.4 20:35:26 10° NNW 20:39:26 39° NE 20:43:35 10° ESE
FALCON 9 DEB 2.9 20:37:28 10° SW 20:40:30 54° SE 20:43:32 10° ENE
CENTAUR R/B 4.2 20:36:25 10° WSW 20:42:11 41° NW 20:49:01 10° NNE
KORONAS-FOTON 3.7 20:38:58 10° S 20:42:45 75° E 20:46:32 10° NNE
Cosmos 1726 4.0 20:39:39 10° NNW 20:42:48 27° W 20:45:55 10° SSW
CARTOSAT-1 4.1 20:40:17 11° SE 20:44:14 44° ENE 20:48:21 10° N
SL-14 R/B 4.4 20:41:31 11° SSE 20:44:51 28° E 20:48:19 10° NNE
Terra 3.2 20:41:23 10° ESE 20:45:16 26° ENE 20:49:11 10° N
SPOT 1/Viking Rocket 3.6 20:41:03 10° SSE 20:46:11 77° ENE 20:51:20 10° N
Cosmos 2360 Rocket 2.2 20:40:32 10° SSW 20:46:11 87° ESE 20:51:51 10° NNE
Cosmos 1674 2.6 20:43:05 10° S 20:46:47 84° E 20:50:30 10° N
OBJECT-B 4.0 20:46:09 10° WSW 20:46:47 10° W 20:47:26 10° WNW
FALCON 9 DEB 3.0 20:45:27 10° SW 20:48:27 49° SE 20:51:29 10° ENE
CZ-2C R/B 3.8 20:44:03 10° NNE 20:48:51 72° ESE 20:53:35 10° S
Cosmos 2322 Rocket 3.1 20:44:48 10° SW 20:50:23 54° WNW 20:56:00 10° NNE
SL-16 R/B 3.6 20:45:09 10° SW 20:50:31 43° WNW 20:55:57 10° NNE
FALCON 9 DEB 2.8 20:47:58 10° SW 20:51:02 64° SE 20:54:07 10° ENE
Cosmos 1953 2.3 20:47:51 10° N 20:51:57 89° E 20:56:00 10° S
SPOT 5 3.6 20:48:16 12° SE 20:52:38 42° ENE 20:57:11 10° N
USA 245 4.2 20:48:19 10° SSE 20:53:20 80° ENE 20:59:19 10° N
Cosmos 1975 Rocket 3.2 20:49:38 10° SSW 20:53:59 76° W 20:58:25 10° N
Cosmos 1802 Rocket 4.1 20:49:42 10° N 20:55:59 66° E 21:01:57 12° SSE
Cosmos 1302 Rocket 4.4 20:52:11 10° S 20:57:07 42° ESE 21:02:02 10° NE
Cosmos 1459 Rocket 3.9 20:51:20 10° N 20:57:26 81° E 21:03:31 10° S
Cosmos 1300 3.6 21:00:25 10° N 21:03:56 34° ENE 21:06:19 17° SE
Lacrosse 5 4.1 21:02:11 10° W 21:05:08 16° WSW 21:08:05 10° SSW
Resurs 01 Rocket 2.9 21:01:15 10° SSW 21:05:18 36° W 21:09:24 10° NNW
Meteor 1-16 Rocket 4.4 21:01:42 10° NNW 21:07:06 68° W 21:12:22 10° S
Cosmos 1340 2.7 21:07:27 13° S 21:10:39 58° E 21:14:22 10° NNE
Cosmos 2322 3.7 21:08:15 10° SSW 21:13:50 69° ESE 21:19:28 10° NNE
COSMOS 2428 3.0 21:10:06 10° S 21:15:35 49° ESE 21:21:07 10° NE
Cosmos 2278 Rocket 3.4 21:11:25 10° N 21:16:26 31° NE 21:20:55 12° ESE
Cosmos 1844 Rocket 3.2 21:12:06 10° NW 21:17:38 54° WSW 21:22:30 13° S
Cosmos 389 Rocket 4.1 21:20:13 10° NNE 21:22:53 21° ENE 21:24:17 16° ESE
Cosmos 1867 4.1 21:19:26 10° NNW 21:24:49 53° NE 21:28:54 17° ESE
ATLAS 2A CENTAUR R/B 4.3 21:19:45 10° SW 21:25:19 14° SSW 21:27:25 13° S
Cosmos 1864 Rocket 4.4 21:20:13 10° N 21:26:26 82° E 21:31:18 17° S
Cosmos 968 Rocket 3.6 21:25:06 10° NNW 21:30:11 61° ENE 21:33:29 22° SE
Cosmos 1626 3.1 21:30:06 10° SSW 21:33:38 45° WNW 21:37:13 10° N
Cosmos 1486 Rocket 4.4 21:30:33 10° NNW 21:35:40 52° ENE 21:38:52 22° SE
Cosmos 1544 Rocket 4.3 21:31:26 10° NNW 21:35:46 50° W 21:39:23 14° SSW
Cosmos 2123 Rocket 4.1 21:29:58 10° S 21:36:17 87° W 21:42:39 10° N
Cosmos 2061 Rocket 4.1 21:31:13 10° N 21:37:40 80° W 21:42:50 16° S
Meteor 2-10 Rocket 3.8 21:34:52 10° N 21:39:48 50° ENE 21:42:36 24° SE
Uosat 12 SS-18 rocket 4.1 21:35:52 10° SSW 21:40:10 70° ESE 21:45:07 10° NE
Cosmos 1992 Rocket 4.4 21:37:58 21° SSE 21:40:58 43° ESE 21:45:54 10° NNE
Cosmos 2233 Rocket 4.0 21:35:19 10° N 21:41:28 68° E 21:45:35 22° SSE
ARIANE 5 R/B 3.3 21:38:34 16° S 21:41:55 50° W 21:46:19 10° NNW
Cosmos 1346 Rocket 3.1 21:47:03 30° SSE 21:48:40 48° E 21:52:34 10° NNE
Cosmos 405 3.8 21:48:29 10° NNW 21:51:47 43° W 21:53:33 22° SSW
ATLAS CENTAUR R/B 2.4 21:48:04 10° NW 21:52:12 41° WSW 21:54:30 23° S
Cosmos 1980 4.2 21:51:14 24° SSE 21:53:58 40° ESE 21:59:14 10° NE
BREEZE-M DEB (TANK) 3.8 21:41:36 10° SW 21:55:02 49° SSE 21:58:54 10° ENE
ATLAS 3B R/B 3.0 21:49:32 10° SW 21:56:03 68° NW 22:02:49 10° NE
SL-4 R/B 2.0 21:54:24 10° SW 21:58:29 54° SE 22:02:16 10° ENE
FALCON 9 DEB 4.2 21:57:33 10° W 22:00:33 43° NNW 22:03:34 10° NE
Cosmos 2219 Rocket 2.8 22:00:07 10° SW 22:05:43 58° WNW 22:11:20 10° NNE
Meteor 2-5 Rocket 4.0 22:01:10 13° SSW 22:06:08 65° WNW 22:11:45 10° N
Cosmos 2333 Rocket 3.1 22:01:51 10° SW 22:07:25 50° WNW 22:12:59 10° NNE
ERS-1 Rocket 3.9 22:04:07 18° SSW 22:07:32 41° W 22:12:19 10° NNW
Lacrosse 5 rocket 3.6 22:04:57 10° W 22:07:59 24° NNW 22:10:58 10° NNE
Cosmos 1607 4.2 22:02:26 10° NNW 22:08:50 64° NE 22:12:53 23° SE
Cosmos 2228 3.0 22:07:50 10° N 22:12:16 89° W 22:14:06 35° S
Iridium 2 4.0 22:12:19 40° SE 22:13:09 48° E 22:16:46 10° NNE
USA 215 3.5 22:14:38 10° ENE 22:20:55 47° SE 22:25:28 19° SSW
Terra 2.8 22:20:12 22° SSW 22:22:49 40° W 22:27:19 10° NNW
SL-16 R/B 3.4 22:23:55 22° ESE 22:24:58 24° ESE 22:29:21 10° NE
Cosmos 2237 Rocket 2.1 22:23:45 28° S 22:26:46 67° ESE 22:32:21 10° NNE
Cosmos 1455 2.2 22:25:22 10° N 22:29:10 68° E 22:29:59 50° SE
Cosmos 1184 Rocket 3.0 22:29:49 50° E 22:29:49 50° E 22:32:56 10° NNE
Cosmos 1464 Rocket 4.2 22:24:56 10° N 22:31:16 62° ENE 22:34:26 30° SSE
Cosmos 192 4.4 22:33:47 38° S 22:35:32 63° ESE 22:40:24 10° NNE
Cosmos 1503 Rocket 4.0 22:30:20 10° NNW 22:35:44 84° WSW 22:37:58 37° SSE
Cosmos 2369 Rocket 4.5 22:32:01 10° N 22:35:45 17° NE 22:39:27 10° E
GEOS 3 Rocket 4.0 22:38:08 25° ESE 22:41:17 63° NE 22:46:34 10° NNW
ATLAS CENTAUR R/B 3.2 22:40:44 34° S 22:42:49 54° ESE 22:53:38 10° NE
USA 267 3.9 22:48:21 10° ESE 22:54:41 55° NNE 23:01:02 10° NW
Okean 1-7 Rocket 3.5 22:54:15 49° SSE 22:55:21 73° E 22:59:48 10° NNE
Cosmos 389 Rocket 4.1 22:54:41 10° NW 22:57:28 23° W 22:58:04 22° WSW
BREEZE-M DEB (TANK) 3.4 22:55:53 10° W 22:59:02 56° N 23:07:36 10° ENE
COSMOS 2428 4.5 22:55:04 10° WSW 23:00:06 30° NW 23:05:09 10° N
Cosmos 2278 Rocket 2.7 22:55:18 10° NW 23:00:42 47° WSW 23:02:45 33° SSW
Cosmos 1726 Rocket 4.4 22:58:23 10° NNW 23:02:36 41° W 23:03:58 32° SW
Cosmos 2297 4.3 22:57:46 10° NNW 23:03:17 50° ENE 23:06:10 26° ESE
Cosmos 2058 Rocket 3.2 22:58:53 10° NNW 23:03:18 67° W 23:04:24 47° SSW
Cosmos 2034 Rocket 3.9 23:01:13 10° N 23:07:26 80° E 23:10:01 37° SSE
Centaur D AC-29 4.4 23:05:13 10° WSW 23:07:52 11° SW 23:09:10 11° SW
SJ 16-02 2.0 23:11:57 10° N 23:16:11 46° ENE 23:17:28 35° ESE
Meteor 1-21 Rocket 4.3 23:14:30 34° SSW 23:17:02 71° WNW 23:22:48 10° N
Cosmos 1777 Rocket 3.9 23:15:59 10° NNW 23:21:17 81° WSW 23:22:57 45° S
Spot 4 4.3 23:20:17 39° SW 23:21:35 50° W 23:26:14 10° NNW
Meteor 1-11 4.5 23:19:57 39° SSE 23:21:43 55° E 23:27:09 10° NNE
GP-B 3.6 23:20:53 10° NNE 23:25:10 45° E 23:26:01 40° ESE
Cosmos 1943 Rocket 2.5 23:20:53 10° NNW 23:26:21 59° ENE 23:28:53 31° SE
Meteor 1-4 Rocket 2.3 23:23:12 10° NNW 23:26:36 81° WNW 23:26:36 81° WNW
Cosmos 1892 4.2 23:30:16 24° E 23:30:28 24° E 23:33:38 10° NE
Cosmos 1441 Rocket 4.1 23:29:44 36° WSW 23:30:32 41° WNW 23:34:11 10° N
MTI 4.2 23:29:58 10° NNE 23:32:27 54° NE 23:32:27 54° NE
ALOS 2 2.8 23:35:17 50° SW 23:36:04 59° W 23:40:25 10° NNW
Tsikada Rocket 3.9 23:34:14 39° S 23:36:43 88° ESE 23:42:55 10° N
SL-4 R/B 3.0 23:34:19 10° W 23:38:09 43° NNW 23:41:43 10° NE
USA 229 DEB 3.9 23:38:46 38° SSE 23:40:42 50° ESE 23:47:11 10° NE
USA 229 3.9 23:38:53 38° SSE 23:40:48 49° ESE 23:47:17 10° NE
NOSS 3-1 (C) 3.1 23:46:44 40° SSW 23:48:48 83° SE 23:55:03 10° NE
Cosmos 1626 Rocket 4.2 23:49:24 38° WSW 23:50:34 48° WNW 23:54:53 10° N
Cosmos 724 4.4 23:46:21 10° NW 23:52:25 61° WSW 23:54:20 42° S
Cosmos 1408 3.6 23:53:09 34° E 23:53:13 34° E 23:56:35 10° NNE
Elektron 1 4.5 23:51:31 10° NW 23:53:44 46° WNW 23:53:44 46° WNW
Cosmos 1825 3.9 23:54:28 21° E 23:54:47 21° E 23:57:41 10° NE
OPS 6432 4.5 23:52:15 10° NW 23:54:58 70° NW 23:54:58 70° NW
